Time,TemperatureF,DewpointF,PressureIn,WindDirection,WindDirectionDegrees,WindSpeedMPH,WindSpeedGustMPH,Humidity,HourlyPrecipIn,Conditions,Clouds,dailyrainin,SoftwareType,DateUTC
2013-06-01 00:00:00,75.8,72.3,30.16,SSW,197,8.0,13.0,89,0.00,,---,0.00,VWS V14.01,2013-06-01 04:00:00,
2013-06-01 00:01:00,75.8,72.3,30.16,SW,219,12.0,13.0,89,0.00,,---,0.00,VWS V14.01,2013-06-01 04:01:00,
2013-06-01 00:02:00,75.8,72.3,30.16,SW,231,7.0,13.0,89,0.00,,---,0.00,VWS V14.01,2013-06-01 04:02:00,
2013-06-01 00:08:00,75.8,72.3,30.17,SW,224,10.0,16.0,89,0.00,,---,0.00,VWS V14.01,2013-06-01 04:08:00,
2013-06-01 00:13:00,75.8,72.3,30.16,SW,236,4.0,16.0,89,0.00,,---,0.00,VWS V14.01,2013-06-01 04:13:00,
2013-06-01 00:18:00,75.8,72.3,30.16,SW,225,12.0,16.0,89,0.00,,---,0.00,VWS V14.01,2013-06-01 04:18:00,
2013-06-01 00:23:00,75.8,72.3,30.16,SSW,206,10.0,16.0,89,0.00,,---,0.00,VWS V14.01,2013-06-01 04:23:00,
2013-06-01 00:28:00,75.7,72.2,30.16,SW,228,10.0,12.0,89,0.00,,---,0.00,VWS V14.01,2013-06-01 04:28:00,
2013-06-01 00:33:00,75.7,72.2,30.16,SW,221,8.0,15.0,89,0.00,,---,0.00,VWS V14.01,2013-06-01 04:33:00,
2013-06-01 00:38:00,75.7,72.2,30.15,SW,221,7.0,15.0,89,0.00,,---,0.00,VWS V14.01,2013-06-01 04:38:00,
2013-06-01 00:43:00,75.7,72.2,30.15,SW,215,9.0,15.0,89,0.00,,---,0.00,VWS V14.01,2013-06-01 04:43:00,
2013-06-01 00:48:00,75.6,72.1,30.15,SW,217,9.0,15.0,89,0.00,,---,0.00,VWS V14.01,2013-06-01 04:48:00,
2013-06-01 00:53:00,75.5,72.0,30.15,SW,235,12.0,15.0,89,0.00,,---,0.00,VWS V14.01,2013-06-01 04:53:00,
2013-06-01 00:58:00,75.5,72.0,30.15,SSW,207,10.0,12.0,89,0.00,,---,0.00,VWS V14.01,2013-06-01 04:58:00,
2013-06-01 01:04:00,75.5,72.0,30.15,SSW,202,7.0,15.0,89,0.00,,---,0.00,VWS V14.01,2013-06-01 05:04:00,
2013-06-01 01:09:00,75.5,72.0,30.15,SW,215,12.0,15.0,89,0.00,,---,0.00,VWS V14.01,2013-06-01 05:09:00,
2013-06-01 01:14:00,75.5,72.4,30.15,SSW,204,6.0,15.0,90,0.00,,---,0.00,VWS V14.01,2013-06-01 05:14:00,
2013-06-01 01:19:00,75.5,72.4,30.15,SW,232,10.0,15.0,90,0.00,,---,0.00,VWS V14.01,2013-06-01 05:19:00,
2013-06-01 01:24:00,75.4,72.3,30.15,WSW,244,5.0,15.0,90,0.00,,---,0.00,VWS V14.01,2013-06-01 05:24:00,
2013-06-01 01:29:00,75.4,72.3,30.14,SW,223,5.0,10.0,90,0.00,,---,0.00,VWS V14.01,2013-06-01 05:29:00,
2013-06-01 01:34:00,75.3,72.2,30.15,SW,229,7.0,13.0,90,0.00,,---,0.00,VWS V14.01,2013-06-01 05:34:00,
2013-06-01 01:39:00,75.3,72.2,30.15,SW,233,6.0,13.0,90,0.00,,---,0.00,VWS V14.01,2013-06-01 05:39:00,
2013-06-01 01:44:00,75.2,72.1,30.14,SW,221,7.0,13.0,90,0.00,,---,0.00,VWS V14.01,2013-06-01 05:44:00,
2013-06-01 01:49:00,75.2,72.1,30.15,WSW,237,9.0,13.0,90,0.00,,---,0.00,VWS V14.01,2013-06-01 05:49:00,
2013-06-01 01:54:00,75.1,72.3,30.14,West,267,5.0,13.0,91,0.00,,---,0.00,VWS V14.01,2013-06-01 05:54:00,
2013-06-01 01:59:00,75.1,72.3,30.14,SW,235,6.0,10.0,91,0.00,,---,0.00,VWS V14.01,2013-06-01 05:59:00,
2013-06-01 02:04:00,75.0,72.2,30.14,SW,220,7.0,10.0,91,0.00,,---,0.00,VWS V14.01,2013-06-01 06:04:00,
2013-06-01 02:09:00,75.0,72.2,30.14,WSW,240,5.0,10.0,91,0.00,,---,0.00,VWS V14.01,2013-06-01 06:09:00,
2013-06-01 02:14:00,75.0,72.2,30.13,WSW,248,3.0,10.0,91,0.00,,---,0.00,VWS V14.01,2013-06-01 06:14:00,
2013-06-01 02:20:00,75.0,72.2,30.13,SW,234,3.0,10.0,91,0.00,,---,0.00,VWS V14.01,2013-06-01 06:20:00,
2013-06-01 02:25:00,74.9,72.1,30.13,West,261,3.0,10.0,91,0.00,,---,0.00,VWS V14.01,2013-06-01 06:25:00,
2013-06-01 02:30:00,74.9,72.1,30.13,West,259,2.0,5.0,91,0.00,,---,0.00,VWS V14.01,2013-06-01 06:30:00,
2013-06-01 02:35:00,74.8,72.0,30.13,WSW,258,4.0,6.0,91,0.00,,---,0.00,VWS V14.01,2013-06-01 06:35:00,
2013-06-01 02:40:00,74.7,71.9,30.13,WSW,246,3.0,6.0,91,0.00,,---,0.00,VWS V14.01,2013-06-01 06:40:00,
2013-06-01 02:45:00,74.6,71.8,30.12,West,259,2.0,6.0,91,0.00,,---,0.00,VWS V14.01,2013-06-01 06:45:00,
2013-06-01 02:50:00,74.5,71.7,30.13,West,259,2.0,6.0,91,0.00,,---,0.00,VWS V14.01,2013-06-01 06:50:00,
2013-06-01 02:55:00,74.4,71.9,30.13,WSW,254,2.0,6.0,92,0.00,,---,0.00,VWS V14.01,2013-06-01 06:55:00,
2013-06-01 03:00:00,74.2,71.7,30.13,SW,232,4.0,5.0,92,0.00,,---,0.00,VWS V14.01,2013-06-01 07:00:00,
2013-06-01 03:05:00,74.0,71.5,30.12,WSW,240,3.0,7.0,92,0.00,,---,0.00,VWS V14.01,2013-06-01 07:05:00,
2013-06-01 03:10:00,73.9,71.4,30.12,WSW,255,4.0,7.0,92,0.00,,---,0.00,VWS V14.01,2013-06-01 07:10:00,
2013-06-01 03:15:00,73.8,71.3,30.12,WSW,244,5.0,7.0,92,0.00,,---,0.00,VWS V14.01,2013-06-01 07:15:00,
2013-06-01 03:20:00,73.8,71.3,30.12,WSW,257,3.0,7.0,92,0.00,,---,0.00,VWS V14.01,2013-06-01 07:20:00,
2013-06-01 03:26:00,73.7,71.2,30.13,WSW,238,3.0,7.0,92,0.00,,---,0.00,VWS V14.01,2013-06-01 07:26:00,
2013-06-01 03:31:00,73.7,71.2,30.13,WSW,244,1.0,5.0,92,0.00,,---,0.00,VWS V14.01,2013-06-01 07:31:00,
2013-06-01 03:36:00,73.7,71.2,30.13,WSW,252,3.0,5.0,92,0.00,,---,0.00,VWS V14.01,2013-06-01 07:36:00,
2013-06-01 03:41:00,73.8,71.3,30.13,WSW,258,0.0,5.0,92,0.00,,---,0.00,VWS V14.01,2013-06-01 07:41:00,
2013-06-01 03:46:00,73.9,71.4,30.13,WSW,258,1.0,5.0,92,0.00,,---,0.00,VWS V14.01,2013-06-01 07:46:00,
2013-06-01 03:51:00,73.8,71.3,30.13,WSW,258,1.0,5.0,92,0.00,,---,0.00,VWS V14.01,2013-06-01 07:51:00,
2013-06-01 03:56:00,73.7,71.2,30.12,WSW,258,1.0,5.0,92,0.00,,---,0.00,VWS V14.01,2013-06-01 07:56:00,
2013-06-01 04:01:00,73.6,71.5,30.12,WSW,258,1.0,2.0,93,0.00,,---,0.00,VWS V14.01,2013-06-01 08:01:00,
2013-06-01 04:06:00,73.5,71.4,30.12,WSW,258,0.0,2.0,93,0.00,,---,0.00,VWS V14.01,2013-06-01 08:06:00,
2013-06-01 04:11:00,73.4,71.3,30.12,WSW,258,0.0,2.0,93,0.00,,---,0.00,VWS V14.01,2013-06-01 08:11:00,
2013-06-01 04:17:00,73.2,71.1,30.13,WSW,258,1.0,2.0,93,0.00,,---,0.00,VWS V14.01,2013-06-01 08:17:00,
2013-06-01 04:22:00,73.1,71.0,30.12,WSW,258,0.0,3.0,93,0.00,,---,0.00,VWS V14.01,2013-06-01 08:22:00,
2013-06-01 04:27:00,73.0,70.9,30.13,WSW,258,1.0,3.0,93,0.00,,---,0.00,VWS V14.01,2013-06-01 08:27:00,
2013-06-01 04:32:00,73.0,70.9,30.12,WSW,258,0.0,3.0,93,0.00,,---,0.00,VWS V14.01,2013-06-01 08:32:00,
2013-06-01 04:37:00,72.9,70.8,30.13,WSW,258,0.0,3.0,93,0.00,,---,0.00,VWS V14.01,2013-06-01 08:37:00,
2013-06-01 04:42:00,72.9,70.8,30.13,WSW,258,0.0,3.0,93,0.00,,---,0.00,VWS V14.01,2013-06-01 08:42:00,
2013-06-01 04:47:00,72.8,70.7,30.13,WSW,258,0.0,3.0,93,0.00,,---,0.00,VWS V14.01,2013-06-01 08:47:00,
2013-06-01 04:52:00,72.8,70.7,30.14,WSW,258,3.0,4.0,93,0.00,,---,0.00,VWS V14.01,2013-06-01 08:52:00,
2013-06-01 04:57:00,72.7,70.6,30.14,West,260,3.0,4.0,93,0.00,,---,0.00,VWS V14.01,2013-06-01 08:57:00,
2013-06-01 05:02:00,72.7,70.6,30.14,West,260,0.0,3.0,93,0.00,,---,0.00,VWS V14.01,2013-06-01 09:02:00,
2013-06-01 05:07:00,72.7,70.6,30.14,West,260,2.0,3.0,93,0.00,,---,0.00,VWS V14.01,2013-06-01 09:07:00,
2013-06-01 05:12:00,72.7,70.6,30.14,West,259,3.0,3.0,93,0.00,,---,0.00,VWS V14.01,2013-06-01 09:12:00,
2013-06-01 05:17:00,72.7,70.6,30.14,West,259,2.0,3.0,93,0.00,,---,0.00,VWS V14.01,2013-06-01 09:17:00,
2013-06-01 05:22:00,72.8,70.7,30.14,West,259,1.0,3.0,93,0.00,,---,0.00,VWS V14.01,2013-06-01 09:22:00,
2013-06-01 05:28:00,73.0,71.2,30.15,West,259,1.0,1.0,94,0.00,,---,0.00,VWS V14.01,2013-06-01 09:28:00,
2013-06-01 05:33:00,73.2,71.4,30.15,West,259,1.0,2.0,94,0.00,,---,0.00,VWS V14.01,2013-06-01 09:33:00,
2013-06-01 05:38:00,73.2,71.4,30.15,West,259,0.0,2.0,94,0.00,,---,0.00,VWS V14.01,2013-06-01 09:38:00,
2013-06-01 05:43:00,73.1,71.3,30.15,West,259,0.0,2.0,94,0.00,,---,0.00,VWS V14.01,2013-06-01 09:43:00,
2013-06-01 05:48:00,73.1,71.3,30.15,West,259,0.0,2.0,94,0.00,,---,0.00,VWS V14.01,2013-06-01 09:48:00,
2013-06-01 05:53:00,73.1,71.3,30.16,West,259,0.0,2.0,94,0.00,,---,0.00,VWS V14.01,2013-06-01 09:53:00,
2013-06-01 05:58:00,73.0,71.2,30.16,West,259,0.0,0.0,94,0.00,,---,0.00,VWS V14.01,2013-06-01 09:58:00,
2013-06-01 06:03:00,72.9,71.1,30.16,West,259,0.0,1.0,94,0.00,,---,0.00,VWS V14.01,2013-06-01 10:03:00,
2013-06-01 06:08:00,72.8,71.0,30.16,West,259,0.0,1.0,94,0.00,,---,0.00,VWS V14.01,2013-06-01 10:08:00,
2013-06-01 06:13:00,72.8,71.0,30.16,West,259,0.0,1.0,94,0.00,,---,0.00,VWS V14.01,2013-06-01 10:13:00,
2013-06-01 06:18:00,72.7,70.9,30.16,West,259,0.0,1.0,94,0.00,,---,0.00,VWS V14.01,2013-06-01 10:18:00,
2013-06-01 06:23:00,72.7,70.9,30.16,West,259,0.0,1.0,94,0.00,,---,0.00,VWS V14.01,2013-06-01 10:23:00,
2013-06-01 06:28:00,72.6,70.8,30.16,West,259,0.0,0.0,94,0.00,,---,0.00,VWS V14.01,2013-06-01 10:28:00,
2013-06-01 06:33:00,72.6,70.8,30.16,West,259,0.0,2.0,94,0.00,,---,0.00,VWS V14.01,2013-06-01 10:33:00,
2013-06-01 06:38:00,72.7,70.9,30.16,West,259,0.0,2.0,94,0.00,,---,0.00,VWS V14.01,2013-06-01 10:38:00,
2013-06-01 06:43:00,72.8,71.0,30.16,West,259,0.0,2.0,94,0.00,,---,0.00,VWS V14.01,2013-06-01 10:43:00,
2013-06-01 06:48:00,72.9,71.1,30.17,West,259,0.0,2.0,94,0.00,,---,0.00,VWS V14.01,2013-06-01 10:48:00,
2013-06-01 06:53:00,73.0,71.2,30.17,West,259,2.0,2.0,94,0.00,,---,0.00,VWS V14.01,2013-06-01 10:53:00,
2013-06-01 06:58:00,73.2,71.4,30.17,West,259,1.0,2.0,94,0.00,,---,0.00,VWS V14.01,2013-06-01 10:58:00,
2013-06-01 07:03:00,73.2,71.4,30.17,WSW,246,2.0,3.0,94,0.00,,---,0.00,VWS V14.01,2013-06-01 11:03:00,
2013-06-01 07:09:00,73.2,71.4,30.17,West,260,2.0,4.0,94,0.00,,---,0.00,VWS V14.01,2013-06-01 11:09:00,
2013-06-01 07:14:00,73.2,71.4,30.17,West,260,2.0,4.0,94,0.00,,---,0.00,VWS V14.01,2013-06-01 11:14:00,
2013-06-01 07:19:00,73.3,71.5,30.17,West,260,3.0,4.0,94,0.00,,---,0.00,VWS V14.01,2013-06-01 11:19:00,
2013-06-01 07:24:00,73.5,71.7,30.17,West,260,2.0,4.0,94,0.00,,---,0.00,VWS V14.01,2013-06-01 11:24:00,
2013-06-01 07:29:00,73.6,71.8,30.17,West,260,3.0,4.0,94,0.00,,---,0.00,VWS V14.01,2013-06-01 11:29:00,
2013-06-01 07:34:00,73.8,72.0,30.17,WSW,257,4.0,5.0,94,0.00,,---,0.00,VWS V14.01,2013-06-01 11:34:00,
2013-06-01 07:39:00,73.9,71.8,30.17,West,267,2.0,6.0,93,0.00,,---,0.00,VWS V14.01,2013-06-01 11:39:00,
2013-06-01 07:44:00,74.1,71.9,30.17,WSW,238,5.0,6.0,93,0.00,,---,0.00,VWS V14.01,2013-06-01 11:44:00,
2013-06-01 07:49:00,74.3,72.2,30.17,West,267,6.0,9.0,93,0.00,,---,0.00,VWS V14.01,2013-06-01 11:49:00,
2013-06-01 07:54:00,74.4,71.9,30.17,West,268,6.0,9.0,92,0.00,,---,0.00,VWS V14.01,2013-06-01 11:54:00,
2013-06-01 07:59:00,74.5,72.0,30.17,West,263,4.0,6.0,92,0.00,,---,0.00,VWS V14.01,2013-06-01 11:59:00,
2013-06-01 08:04:00,74.7,72.2,30.17,West,265,5.0,7.0,92,0.00,,---,0.00,VWS V14.01,2013-06-01 12:04:00,
2013-06-01 08:10:00,74.8,72.0,30.17,West,273,6.0,7.0,91,0.00,,---,0.00,VWS V14.01,2013-06-01 12:10:00,
2013-06-01 08:15:00,74.9,72.1,30.17,West,265,6.0,7.0,91,0.00,,---,0.00,VWS V14.01,2013-06-01 12:15:00,
2013-06-01 08:20:00,75.0,72.2,30.18,West,266,4.0,7.0,91,0.00,,---,0.00,VWS V14.01,2013-06-01 12:20:00,
2013-06-01 08:25:00,75.1,72.0,30.18,West,269,6.0,10.0,90,0.00,,---,0.00,VWS V14.01,2013-06-01 12:25:00,
2013-06-01 08:30:00,75.3,72.2,30.18,WSW,243,3.0,7.0,90,0.00,,---,0.00,VWS V14.01,2013-06-01 12:30:00,
2013-06-01 08:35:00,75.5,72.0,30.18,West,269,3.0,7.0,89,0.00,,---,0.00,VWS V14.01,2013-06-01 12:35:00,
2013-06-01 08:40:00,75.9,72.8,30.17,SSW,206,0.0,7.0,90,0.00,,---,0.00,VWS V14.01,2013-06-01 12:40:00,
2013-06-01 08:45:00,76.2,72.7,30.18,SSW,198,6.0,7.0,89,0.00,,---,0.00,VWS V14.01,2013-06-01 12:45:00,
2013-06-01 08:50:00,76.7,73.2,30.17,SSW,213,5.0,7.0,89,0.00,,---,0.00,VWS V14.01,2013-06-01 12:50:00,
2013-06-01 08:55:00,77.2,73.7,30.18,SSW,208,9.0,11.0,89,0.00,,---,0.00,VWS V14.01,2013-06-01 12:55:00,
2013-06-01 09:00:00,77.5,73.3,30.18,SSW,195,7.0,8.0,87,0.00,,---,0.00,VWS V14.01,2013-06-01 13:00:00,
2013-06-01 09:06:00,77.8,73.6,30.17,South,188,6.0,9.0,87,0.00,,---,0.00,VWS V14.01,2013-06-01 13:06:00,
2013-06-01 09:11:00,78.2,73.7,30.17,SSW,205,5.0,10.0,86,0.00,,---,0.00,VWS V14.01,2013-06-01 13:11:00,
2013-06-01 09:16:00,78.4,73.5,30.17,SSW,192,8.0,10.0,85,0.00,,---,0.00,VWS V14.01,2013-06-01 13:16:00,
2013-06-01 09:21:00,78.8,73.9,30.17,SSW,201,8.0,11.0,85,0.00,,---,0.00,VWS V14.01,2013-06-01 13:21:00,
2013-06-01 09:26:00,79.1,73.8,30.17,South,182,8.0,11.0,84,0.00,,---,0.00,VWS V14.01,2013-06-01 13:26:00,
2013-06-01 09:31:00,79.3,73.7,30.17,SSW,200,10.0,10.0,83,0.00,,---,0.00,VWS V14.01,2013-06-01 13:31:00,
2013-06-01 09:36:00,79.5,73.9,30.16,SSW,207,5.0,11.0,83,0.00,,---,0.00,VWS V14.01,2013-06-01 13:36:00,
2013-06-01 09:41:00,79.7,73.7,30.16,South,191,6.0,11.0,82,0.00,,---,0.00,VWS V14.01,2013-06-01 13:41:00,
2013-06-01 09:46:00,79.8,73.4,30.16,SSW,192,5.0,11.0,81,0.00,,---,0.00,VWS V14.01,2013-06-01 13:46:00,
2013-06-01 09:51:00,79.9,73.6,30.16,SSW,204,10.0,11.0,81,0.00,,---,0.00,VWS V14.01,2013-06-01 13:51:00,
2013-06-01 09:56:00,80.0,73.3,30.16,South,188,7.0,11.0,80,0.00,,---,0.00,VWS V14.01,2013-06-01 13:56:00,
2013-06-01 10:01:00,80.0,73.3,30.16,SSW,202,8.0,11.0,80,0.00,,---,0.00,VWS V14.01,2013-06-01 14:01:00,
2013-06-01 10:07:00,80.2,73.5,30.16,SSW,198,10.0,11.0,80,0.00,,---,0.00,VWS V14.01,2013-06-01 14:07:00,
2013-06-01 10:12:00,80.4,73.3,30.16,SSW,201,8.0,11.0,79,0.00,,---,0.00,VWS V14.01,2013-06-01 14:12:00,
2013-06-01 10:17:00,80.6,73.5,30.15,SSW,196,9.0,12.0,79,0.00,,---,0.00,VWS V14.01,2013-06-01 14:17:00,
2013-06-01 10:22:00,80.7,73.2,30.15,SSW,192,5.0,12.0,78,0.00,,---,0.00,VWS V14.01,2013-06-01 14:22:00,
2013-06-01 10:27:00,80.9,73.4,30.15,SSW,200,7.0,12.0,78,0.00,,---,0.00,VWS V14.01,2013-06-01 14:27:00,
2013-06-01 10:32:00,81.0,73.1,30.15,SSW,197,9.0,11.0,77,0.00,,---,0.00,VWS V14.01,2013-06-01 14:32:00,
2013-06-01 10:37:00,81.1,73.2,30.15,SSW,198,8.0,11.0,77,0.00,,---,0.00,VWS V14.01,2013-06-01 14:37:00,
2013-06-01 10:42:00,81.1,73.2,30.15,South,186,5.0,13.0,77,0.00,,---,0.00,VWS V14.01,2013-06-01 14:42:00,
2013-06-01 10:47:00,81.1,73.6,30.15,South,187,10.0,13.0,78,0.00,,---,0.00,VWS V14.01,2013-06-01 14:47:00,
2013-06-01 10:52:00,81.4,73.5,30.15,SSW,199,13.0,13.0,77,0.00,,---,0.00,VWS V14.01,2013-06-01 14:52:00,
2013-06-01 10:58:00,81.5,73.6,30.15,SSW,198,12.0,13.0,77,0.00,,---,0.00,VWS V14.01,2013-06-01 14:58:00,
2013-06-01 11:03:00,81.6,73.7,30.15,South,184,10.0,14.0,77,0.00,,---,0.00,VWS V14.01,2013-06-01 15:03:00,
2013-06-01 11:08:00,81.8,73.5,30.15,SSW,192,15.0,15.0,76,0.00,,---,0.00,VWS V14.01,2013-06-01 15:08:00,
2013-06-01 11:13:00,82.1,73.8,30.15,SSW,205,10.0,16.0,76,0.00,,---,0.00,VWS V14.01,2013-06-01 15:13:00,
2013-06-01 11:18:00,82.2,73.9,30.15,SSW,200,16.0,16.0,76,0.00,,---,0.00,VWS V14.01,2013-06-01 15:18:00,
2013-06-01 11:23:00,82.0,73.3,30.15,SSW,208,10.0,17.0,75,0.00,,---,0.00,VWS V14.01,2013-06-01 15:23:00,
2013-06-01 11:28:00,82.0,73.3,30.15,South,183,9.0,14.0,75,0.00,,---,0.00,VWS V14.01,2013-06-01 15:28:00,
2013-06-01 11:33:00,81.7,73.0,30.15,SSW,202,12.0,15.0,75,0.00,,---,0.00,VWS V14.01,2013-06-01 15:33:00,
2013-06-01 11:38:00,81.5,72.8,30.15,SSW,204,10.0,15.0,75,0.00,,---,0.00,VWS V14.01,2013-06-01 15:38:00,
2013-06-01 11:43:00,81.5,73.2,30.15,SSW,198,10.0,15.0,76,0.00,,---,0.00,VWS V14.01,2013-06-01 15:43:00,
2013-06-01 11:48:00,81.7,73.8,30.15,SSW,201,6.0,16.0,77,0.00,,---,0.00,VWS V14.01,2013-06-01 15:48:00,
2013-06-01 11:53:00,82.0,73.7,30.14,SSW,196,12.0,16.0,76,0.00,,---,0.00,VWS V14.01,2013-06-01 15:53:00,
2013-06-01 11:58:00,82.1,73.4,30.14,SSW,202,8.0,11.0,75,0.00,,---,0.00,VWS V14.01,2013-06-01 15:58:00,
2013-06-01 12:03:00,82.0,73.7,30.14,SSW,192,14.0,17.0,76,0.00,,---,0.00,VWS V14.01,2013-06-01 16:03:00,
2013-06-01 12:08:00,82.0,73.3,30.14,South,174,12.0,18.0,75,0.00,,---,0.00,VWS V14.01,2013-06-01 16:08:00,
2013-06-01 12:13:00,82.0,73.7,30.14,SSW,194,15.0,19.0,76,0.00,,---,0.00,VWS V14.01,2013-06-01 16:13:00,
2013-06-01 12:18:00,82.0,73.7,30.14,SSW,203,14.0,19.0,76,0.00,,---,0.00,VWS V14.01,2013-06-01 16:18:00,
2013-06-01 12:23:00,82.0,73.7,30.14,SSW,197,18.0,20.0,76,0.00,,---,0.00,VWS V14.01,2013-06-01 16:23:00,
2013-06-01 12:28:00,81.9,73.6,30.14,SSW,192,18.0,18.0,76,0.00,,---,0.00,VWS V14.01,2013-06-01 16:28:00,
2013-06-01 12:34:00,81.9,73.6,30.14,SSW,199,14.0,19.0,76,0.00,,---,0.00,VWS V14.01,2013-06-01 16:34:00,
2013-06-01 12:39:00,81.9,73.6,30.14,SSW,209,16.0,19.0,76,0.00,,---,0.00,VWS V14.01,2013-06-01 16:39:00,
2013-06-01 12:44:00,81.9,73.6,30.14,South,189,11.0,19.0,76,0.00,,---,0.00,VWS V14.01,2013-06-01 16:44:00,
2013-06-01 12:49:00,81.9,73.6,30.14,South,178,7.0,19.0,76,0.00,,---,0.00,VWS V14.01,2013-06-01 16:49:00,
2013-06-01 12:54:00,81.9,73.6,30.14,South,190,13.0,19.0,76,0.00,,---,0.00,VWS V14.01,2013-06-01 16:54:00,
2013-06-01 12:59:00,81.9,73.6,30.13,SSW,200,9.0,17.0,76,0.00,,---,0.00,VWS V14.01,2013-06-01 16:59:00,
2013-06-01 13:04:00,81.9,73.6,30.13,SSW,202,14.0,20.0,76,0.00,,---,0.00,VWS V14.01,2013-06-01 17:04:00,
2013-06-01 13:09:00,81.8,73.5,30.13,SSW,208,10.0,20.0,76,0.00,,---,0.00,VWS V14.01,2013-06-01 17:09:00,
2013-06-01 13:14:00,81.3,73.0,30.13,SSW,193,14.0,20.0,76,0.00,,---,0.00,VWS V14.01,2013-06-01 17:14:00,
2013-06-01 13:19:00,80.9,73.0,30.13,SSW,196,14.0,20.0,77,0.00,,---,0.00,VWS V14.01,2013-06-01 17:19:00,
2013-06-01 13:24:00,80.7,73.2,30.13,South,183,11.0,20.0,78,0.00,,---,0.00,VWS V14.01,2013-06-01 17:24:00,
2013-06-01 13:29:00,80.7,73.2,30.13,SSW,200,10.0,15.0,78,0.00,,---,0.00,VWS V14.01,2013-06-01 17:29:00,
2013-06-01 13:34:00,80.7,72.8,30.12,South,177,16.0,19.0,77,0.00,,---,0.00,VWS V14.01,2013-06-01 17:34:00,
2013-06-01 13:40:00,80.7,73.2,30.12,SSW,206,13.0,21.0,78,0.00,,---,0.00,VWS V14.01,2013-06-01 17:40:00,
2013-06-01 13:45:00,80.6,73.1,30.12,South,182,11.0,21.0,78,0.00,,---,0.00,VWS V14.01,2013-06-01 17:45:00,
2013-06-01 13:50:00,80.6,73.1,30.12,SSW,203,15.0,21.0,78,0.00,,---,0.00,VWS V14.01,2013-06-01 17:50:00,
2013-06-01 13:55:00,80.5,73.0,30.12,South,190,14.0,21.0,78,0.00,,---,0.00,VWS V14.01,2013-06-01 17:55:00,
2013-06-01 14:00:00,80.3,72.8,30.12,SSW,194,13.0,20.0,78,0.00,,---,0.00,VWS V14.01,2013-06-01 18:00:00,
2013-06-01 14:05:00,80.2,72.7,30.12,SSW,200,12.0,20.0,78,0.00,,---,0.00,VWS V14.01,2013-06-01 18:05:00,
2013-06-01 14:10:00,80.2,72.7,30.12,SSW,199,13.0,20.0,78,0.00,,---,0.00,VWS V14.01,2013-06-01 18:10:00,
2013-06-01 14:15:00,80.2,72.7,30.12,SSW,199,14.0,20.0,78,0.00,,---,0.00,VWS V14.01,2013-06-01 18:15:00,
2013-06-01 14:20:00,80.3,73.2,30.12,SSW,202,17.0,20.0,79,0.00,,---,0.00,VWS V14.01,2013-06-01 18:20:00,
2013-06-01 14:25:00,80.5,73.4,30.12,SSW,207,12.0,20.0,79,0.00,,---,0.00,VWS V14.01,2013-06-01 18:25:00,
2013-06-01 14:30:00,80.8,73.3,30.12,SSW,202,11.0,18.0,78,0.00,,---,0.00,VWS V14.01,2013-06-01 18:30:00,
2013-06-01 14:35:00,80.9,73.0,30.12,SSW,192,13.0,21.0,77,0.00,,---,0.00,VWS V14.01,2013-06-01 18:35:00,
2013-06-01 14:40:00,80.9,73.0,30.12,SSW,207,14.0,21.0,77,0.00,,---,0.00,VWS V14.01,2013-06-01 18:40:00,
2013-06-01 14:45:00,80.9,73.0,30.12,SSW,211,13.0,21.0,77,0.00,,---,0.00,VWS V14.01,2013-06-01 18:45:00,
2013-06-01 14:50:00,80.8,72.9,30.12,SW,223,9.0,21.0,77,0.00,,---,0.00,VWS V14.01,2013-06-01 18:50:00,
2013-06-01 14:55:00,80.8,72.9,30.12,SSW,196,10.0,21.0,77,0.00,,---,0.00,VWS V14.01,2013-06-01 18:55:00,
2013-06-01 15:01:00,80.6,72.7,30.12,SW,219,11.0,19.0,77,0.00,,---,0.00,VWS V14.01,2013-06-01 19:01:00,
2013-06-01 15:06:00,80.5,73.0,30.11,SSW,213,10.0,19.0,78,0.00,,---,0.00,VWS V14.01,2013-06-01 19:06:00,
2013-06-01 15:11:00,80.6,73.1,30.11,SSW,196,13.0,19.0,78,0.00,,---,0.00,VWS V14.01,2013-06-01 19:11:00,
2013-06-01 15:16:00,80.7,73.2,30.11,SW,224,9.0,19.0,78,0.00,,---,0.00,VWS V14.01,2013-06-01 19:16:00,
2013-06-01 15:21:00,80.6,73.1,30.11,SSW,207,15.0,19.0,78,0.00,,---,0.00,VWS V14.01,2013-06-01 19:21:00,
2013-06-01 15:26:00,80.9,73.0,30.11,SSW,202,9.0,19.0,77,0.00,,---,0.00,VWS V14.01,2013-06-01 19:26:00,
2013-06-01 15:31:00,81.1,73.6,30.11,SSW,210,9.0,17.0,78,0.00,,---,0.00,VWS V14.01,2013-06-01 19:31:00,
2013-06-01 15:36:00,81.0,73.1,30.11,SSW,202,11.0,17.0,77,0.00,,---,0.00,VWS V14.01,2013-06-01 19:36:00,
2013-06-01 15:41:00,80.8,72.9,30.11,South,188,16.0,18.0,77,0.00,,---,0.00,VWS V14.01,2013-06-01 19:41:00,
2013-06-01 15:46:00,80.7,73.2,30.11,SSW,199,16.0,21.0,78,0.00,,---,0.00,VWS V14.01,2013-06-01 19:46:00,
2013-06-01 15:51:00,80.7,72.8,30.11,SW,217,13.0,21.0,77,0.00,,---,0.00,VWS V14.01,2013-06-01 19:51:00,
2013-06-01 15:56:00,80.5,72.6,30.11,SSW,197,11.0,21.0,77,0.00,,---,0.00,VWS V14.01,2013-06-01 19:56:00,
2013-06-01 16:01:00,80.3,72.4,30.11,SSW,202,18.0,22.0,77,0.00,,---,0.00,VWS V14.01,2013-06-01 20:01:00,
2013-06-01 16:06:00,80.5,72.6,30.10,SSW,192,11.0,22.0,77,0.00,,---,0.00,VWS V14.01,2013-06-01 20:06:00,
2013-06-01 16:11:00,80.8,72.5,30.11,SW,217,18.0,22.0,76,0.00,,---,0.00,VWS V14.01,2013-06-01 20:11:00,
2013-06-01 16:17:00,80.9,72.2,30.11,SSW,201,14.0,22.0,75,0.00,,---,0.00,VWS V14.01,2013-06-01 20:17:00,
2013-06-01 16:22:00,80.5,71.8,30.11,SSW,194,16.0,22.0,75,0.00,,---,0.00,VWS V14.01,2013-06-01 20:22:00,
2013-06-01 16:27:00,80.6,72.3,30.10,South,180,16.0,25.0,76,0.00,,---,0.00,VWS V14.01,2013-06-01 20:27:00,
2013-06-01 16:32:00,80.4,72.2,30.10,South,186,18.0,25.0,76,0.00,,---,0.00,VWS V14.01,2013-06-01 20:32:00,
2013-06-01 16:37:00,80.3,72.1,30.10,SSW,207,15.0,25.0,76,0.00,,---,0.00,VWS V14.01,2013-06-01 20:37:00,
2013-06-01 16:42:00,80.3,72.4,30.10,SSW,193,23.0,25.0,77,0.00,,---,0.00,VWS V14.01,2013-06-01 20:42:00,
2013-06-01 16:47:00,80.3,72.4,30.10,SSW,197,18.0,25.0,77,0.00,,---,0.00,VWS V14.01,2013-06-01 20:47:00,
2013-06-01 16:52:00,80.2,71.9,30.09,SSW,196,16.0,25.0,76,0.00,,---,0.00,VWS V14.01,2013-06-01 20:52:00,
2013-06-01 16:57:00,80.1,71.9,30.09,SSW,194,16.0,25.0,76,0.00,,---,0.00,VWS V14.01,2013-06-01 20:57:00,
2013-06-01 17:02:00,79.9,72.1,30.09,SW,215,18.0,23.0,77,0.00,,---,0.00,VWS V14.01,2013-06-01 21:02:00,
2013-06-01 17:07:00,79.8,71.6,30.09,South,191,13.0,26.0,76,0.00,,---,0.00,VWS V14.01,2013-06-01 21:07:00,
2013-06-01 17:12:00,79.6,71.4,30.09,South,181,14.0,26.0,76,0.00,,---,0.00,VWS V14.01,2013-06-01 21:12:00,
2013-06-01 17:17:00,79.6,71.4,30.09,SW,216,19.0,26.0,76,0.00,,---,0.00,VWS V14.01,2013-06-01 21:17:00,
2013-06-01 17:22:00,79.8,71.6,30.09,SSW,197,18.0,26.0,76,0.00,,---,0.00,VWS V14.01,2013-06-01 21:22:00,
2013-06-01 17:27:00,79.9,71.3,30.08,South,190,13.0,17.0,75,0.00,,---,0.00,VWS V14.01,2013-06-01 21:27:00,
2013-06-01 17:32:00,79.7,71.5,30.08,SW,220,21.0,22.0,76,0.00,,---,0.00,VWS V14.01,2013-06-01 21:32:00,
2013-06-01 17:38:00,79.5,71.3,30.09,SSW,209,19.0,22.0,76,0.00,,---,0.00,VWS V14.01,2013-06-01 21:38:00,
2013-06-01 17:43:00,79.4,70.8,30.09,SW,215,12.0,22.0,75,0.00,,---,0.00,VWS V14.01,2013-06-01 21:43:00,
2013-06-01 17:48:00,79.5,71.3,30.09,SSW,206,12.0,22.0,76,0.00,,---,0.00,VWS V14.01,2013-06-01 21:48:00,
2013-06-01 17:53:00,79.5,71.7,30.09,WSW,249,10.0,22.0,77,0.00,,---,0.00,VWS V14.01,2013-06-01 21:53:00,
2013-06-01 17:58:00,79.4,71.6,30.09,SSW,213,13.0,14.0,77,0.00,,---,0.00,VWS V14.01,2013-06-01 21:58:00,
2013-06-01 18:03:00,79.3,71.8,30.09,SSW,212,13.0,20.0,78,0.00,,---,0.00,VWS V14.01,2013-06-01 22:03:00,
2013-06-01 18:08:00,79.0,71.6,30.09,SW,223,11.0,20.0,78,0.00,,---,0.00,VWS V14.01,2013-06-01 22:08:00,
2013-06-01 18:13:00,78.8,71.7,30.09,SW,229,10.0,21.0,79,0.00,,---,0.00,VWS V14.01,2013-06-01 22:13:00,
2013-06-01 18:18:00,78.7,71.6,30.08,SW,217,12.0,21.0,79,0.00,,---,0.00,VWS V14.01,2013-06-01 22:18:00,
2013-06-01 18:23:00,78.9,71.5,30.09,SSW,213,16.0,22.0,78,0.00,,---,0.00,VWS V14.01,2013-06-01 22:23:00,
2013-06-01 18:28:00,78.6,71.6,30.09,SW,234,12.0,16.0,79,0.00,,---,0.00,VWS V14.01,2013-06-01 22:28:00,
2013-06-01 18:33:00,78.5,71.4,30.08,SW,223,16.0,18.0,79,0.00,,---,0.00,VWS V14.01,2013-06-01 22:33:00,
2013-06-01 18:38:00,78.5,71.4,30.08,SW,219,15.0,19.0,79,0.00,,---,0.00,VWS V14.01,2013-06-01 22:38:00,
2013-06-01 18:43:00,78.7,71.6,30.08,SW,215,13.0,19.0,79,0.00,,---,0.00,VWS V14.01,2013-06-01 22:43:00,
2013-06-01 18:48:00,78.5,71.4,30.08,SSW,205,17.0,21.0,79,0.00,,---,0.00,VWS V14.01,2013-06-01 22:48:00,
2013-06-01 18:53:00,78.4,71.3,30.09,SSW,208,12.0,21.0,79,0.00,,---,0.00,VWS V14.01,2013-06-01 22:53:00,
2013-06-01 18:58:00,78.3,71.6,30.09,SSW,203,10.0,16.0,80,0.00,,---,0.00,VWS V14.01,2013-06-01 22:58:00,
2013-06-01 19:03:00,78.3,71.6,30.09,SSW,196,18.0,20.0,80,0.00,,---,0.00,VWS V14.01,2013-06-01 23:03:00,
2013-06-01 19:09:00,78.1,71.4,30.09,SW,234,11.0,20.0,80,0.00,,---,0.00,VWS V14.01,2013-06-01 23:09:00,
2013-06-01 19:14:00,78.0,71.7,30.09,SSW,208,12.0,20.0,81,0.00,,---,0.00,VWS V14.01,2013-06-01 23:14:00,
2013-06-01 19:19:00,77.8,71.5,30.09,SSW,213,9.0,20.0,81,0.00,,---,0.00,VWS V14.01,2013-06-01 23:19:00,
2013-06-01 19:24:00,77.6,71.3,30.09,SW,229,11.0,21.0,81,0.00,,---,0.00,VWS V14.01,2013-06-01 23:24:00,
2013-06-01 19:29:00,77.6,71.7,30.09,SSW,205,12.0,17.0,82,0.00,,---,0.00,VWS V14.01,2013-06-01 23:29:00,
2013-06-01 19:34:00,77.5,71.6,30.09,SSW,202,7.0,18.0,82,0.00,,---,0.00,VWS V14.01,2013-06-01 23:34:00,
2013-06-01 19:39:00,77.5,71.6,30.09,SW,231,8.0,18.0,82,0.00,,---,0.00,VWS V14.01,2013-06-01 23:39:00,
2013-06-01 19:44:00,77.3,71.7,30.09,SW,234,12.0,18.0,83,0.00,,---,0.00,VWS V14.01,2013-06-01 23:44:00,
2013-06-01 19:49:00,77.1,71.5,30.09,WSW,243,11.0,18.0,83,0.00,,---,0.00,VWS V14.01,2013-06-01 23:49:00,
2013-06-01 19:54:00,77.0,71.4,30.09,SW,224,11.0,18.0,83,0.00,,---,0.00,VWS V14.01,2013-06-01 23:54:00,
2013-06-01 19:59:00,76.9,71.7,30.09,SW,215,9.0,15.0,84,0.00,,---,0.00,VWS V14.01,2013-06-01 23:59:00,
2013-06-01 20:04:00,76.7,71.5,30.09,SW,228,6.0,15.0,84,0.00,,---,0.00,VWS V14.01,2013-06-02 00:04:00,
2013-06-01 20:09:00,76.6,71.4,30.09,SW,235,13.0,17.0,84,0.00,,---,0.00,VWS V14.01,2013-06-02 00:09:00,
2013-06-01 20:14:00,76.5,71.3,30.09,SW,228,13.0,17.0,84,0.00,,---,0.00,VWS V14.01,2013-06-02 00:14:00,
2013-06-01 20:20:00,76.4,71.2,30.09,SW,214,12.0,17.0,84,0.00,,---,0.00,VWS V14.01,2013-06-02 00:20:00,
2013-06-01 20:25:00,76.3,71.5,30.09,SSW,207,14.0,17.0,85,0.00,,---,0.00,VWS V14.01,2013-06-02 00:25:00,
2013-06-01 20:30:00,76.3,71.5,30.09,SW,214,9.0,14.0,85,0.00,,---,0.00,VWS V14.01,2013-06-02 00:30:00,
2013-06-01 20:35:00,76.2,71.4,30.09,SW,223,13.0,14.0,85,0.00,,---,0.00,VWS V14.01,2013-06-02 00:35:00,
2013-06-01 20:40:00,76.1,71.3,30.09,WSW,249,8.0,14.0,85,0.00,,---,0.00,VWS V14.01,2013-06-02 00:40:00,
2013-06-01 20:45:00,76.1,71.3,30.09,SSW,207,11.0,15.0,85,0.00,,---,0.00,VWS V14.01,2013-06-02 00:45:00,
2013-06-01 20:50:00,76.1,71.3,30.09,SW,227,13.0,15.0,85,0.00,,---,0.00,VWS V14.01,2013-06-02 00:50:00,
2013-06-01 20:55:00,76.0,71.5,30.09,SW,221,6.0,16.0,86,0.00,,---,0.00,VWS V14.01,2013-06-02 00:55:00,
2013-06-01 21:00:00,76.0,71.5,30.09,SW,228,11.0,13.0,86,0.00,,---,0.00,VWS V14.01,2013-06-02 01:00:00,
2013-06-01 21:05:00,75.9,71.4,30.09,SW,228,7.0,14.0,86,0.00,,---,0.00,VWS V14.01,2013-06-02 01:05:00,
2013-06-01 21:10:00,75.9,71.4,30.09,SSW,208,16.0,17.0,86,0.00,,---,0.00,VWS V14.01,2013-06-02 01:10:00,
2013-06-01 21:16:00,75.9,71.4,30.09,SSW,205,13.0,18.0,86,0.00,,---,0.00,VWS V14.01,2013-06-02 01:16:00,
2013-06-01 21:21:00,75.9,71.4,30.09,SSW,197,9.0,18.0,86,0.00,,---,0.00,VWS V14.01,2013-06-02 01:21:00,
2013-06-01 21:26:00,75.8,71.3,30.09,SSW,211,15.0,18.0,86,0.00,,---,0.00,VWS V14.01,2013-06-02 01:26:00,
2013-06-01 21:31:00,75.8,71.7,30.09,SSW,210,10.0,16.0,87,0.00,,---,0.00,VWS V14.01,2013-06-02 01:31:00,
2013-06-01 21:36:00,75.7,71.6,30.09,SSW,209,11.0,19.0,87,0.00,,---,0.00,VWS V14.01,2013-06-02 01:36:00,
2013-06-01 21:41:00,75.7,71.6,30.09,SW,215,9.0,19.0,87,0.00,,---,0.00,VWS V14.01,2013-06-02 01:41:00,
2013-06-01 21:46:00,75.7,71.6,30.09,SSW,202,9.0,19.0,87,0.00,,---,0.00,VWS V14.01,2013-06-02 01:46:00,
2013-06-01 21:51:00,75.7,71.6,30.09,SSW,205,13.0,19.0,87,0.00,,---,0.00,VWS V14.01,2013-06-02 01:51:00,
2013-06-01 21:56:00,75.7,71.6,30.09,SSW,209,7.0,19.0,87,0.00,,---,0.00,VWS V14.01,2013-06-02 01:56:00,
2013-06-01 22:01:00,75.6,71.5,30.09,SSW,206,15.0,16.0,87,0.00,,---,0.00,VWS V14.01,2013-06-02 02:01:00,
2013-06-01 22:06:00,75.6,71.5,30.09,SSW,211,13.0,17.0,87,0.00,,---,0.00,VWS V14.01,2013-06-02 02:06:00,
2013-06-01 22:11:00,75.6,71.5,30.09,SSW,211,11.0,17.0,87,0.00,,---,0.00,VWS V14.01,2013-06-02 02:11:00,
2013-06-01 22:17:00,75.6,71.5,30.09,SSW,207,15.0,17.0,87,0.00,,---,0.00,VWS V14.01,2013-06-02 02:17:00,
2013-06-01 22:22:00,75.6,71.5,30.10,SW,227,7.0,17.0,87,0.00,,---,0.00,VWS V14.01,2013-06-02 02:22:00,
2013-06-01 22:27:00,75.6,71.5,30.09,SSW,211,7.0,17.0,87,0.00,,---,0.00,VWS V14.01,2013-06-02 02:27:00,
2013-06-01 22:32:00,75.5,71.4,30.09,SSW,212,12.0,15.0,87,0.00,,---,0.00,VWS V14.01,2013-06-02 02:32:00,
2013-06-01 22:37:00,75.5,71.4,30.09,SSW,202,12.0,17.0,87,0.00,,---,0.00,VWS V14.01,2013-06-02 02:37:00,
2013-06-01 22:42:00,75.5,71.4,30.09,SSW,201,19.0,19.0,87,0.00,,---,0.00,VWS V14.01,2013-06-02 02:42:00,
2013-06-01 22:47:00,75.5,71.4,30.09,SSW,204,14.0,19.0,87,0.00,,---,0.00,VWS V14.01,2013-06-02 02:47:00,
2013-06-01 22:52:00,75.5,71.4,30.09,SSW,205,12.0,19.0,87,0.00,,---,0.00,VWS V14.01,2013-06-02 02:52:00,
2013-06-01 22:57:00,75.5,71.7,30.09,SSW,213,12.0,19.0,88,0.00,,---,0.00,VWS V14.01,2013-06-02 02:57:00,
2013-06-01 23:02:00,75.5,71.7,30.09,SW,225,11.0,15.0,88,0.00,,---,0.00,VWS V14.01,2013-06-02 03:02:00,
2013-06-01 23:07:00,75.5,71.7,30.10,SW,215,9.0,15.0,88,0.00,,---,0.00,VWS V14.01,2013-06-02 03:07:00,
2013-06-01 23:12:00,75.5,71.7,30.10,SSW,207,13.0,15.0,88,0.00,,---,0.00,VWS V14.01,2013-06-02 03:12:00,
2013-06-01 23:17:00,75.5,71.7,30.10,SSW,213,10.0,15.0,88,0.00,,---,0.00,VWS V14.01,2013-06-02 03:17:00,
2013-06-01 23:22:00,75.5,71.7,30.10,SW,221,9.0,15.0,88,0.00,,---,0.00,VWS V14.01,2013-06-02 03:22:00,
2013-06-01 23:27:00,75.5,71.7,30.10,SW,235,9.0,15.0,88,0.00,,---,0.00,VWS V14.01,2013-06-02 03:27:00,
2013-06-01 23:32:00,75.5,71.7,30.10,SW,221,10.0,14.0,88,0.00,,---,0.00,VWS V14.01,2013-06-02 03:32:00,
2013-06-01 23:37:00,75.5,71.7,30.10,SW,229,8.0,14.0,88,0.00,,---,0.00,VWS V14.01,2013-06-02 03:37:00,
2013-06-01 23:42:00,75.5,71.7,30.10,SW,215,9.0,14.0,88,0.00,,---,0.00,VWS V14.01,2013-06-02 03:42:00,
2013-06-01 23:48:00,75.5,71.7,30.10,SSW,207,11.0,14.0,88,0.00,,---,0.00,VWS V14.01,2013-06-02 03:48:00,
2013-06-01 23:53:00,75.5,72.0,30.10,SW,219,9.0,14.0,89,0.00,,---,0.00,VWS V14.01,2013-06-02 03:53:00,
2013-06-01 23:58:00,75.5,72.0,30.10,SW,216,5.0,10.0,89,0.00,,---,0.00,VWS V14.01,2013-06-02 03:58:00,